Regional Weather Roundup
Issued by NWS

Home | Current Version | Previous Version | Text Only | Print | Product List | Glossary On
Versions: 1 2 3 4 5 6 7 8 9 10 11 12 13 14 15 16 17 18 19 20 21 22 23 24 25 26 27 28 29 30 31 32 33 34 35 36 37 38 39 40 41 42 43 44 45 46 47 48 49 50
000
ASHW40 PHFO 080412
RWRHI

WEATHER ROUNDUP FOR HAWAII
NATIONAL WEATHER SERVICE HONOLULU HI
600 PM HST WED DEC 07 2016

THIS IS AN AUTOMATED REPORT THAT HAS NOT BEEN QUALITY CONTROLLED.

NOTE..."FAIR" INDICATES FEW OR NO CLOUDS BELOW 12,000 FEET WITH NO
SIGNIFICANT WEATHER AND/OR OBSTRUCTIONS TO VISIBILITY.

* - THESE SITES REPORT LIMITED FIELDS

HIZ001>004-080500-
KAUAI-NIIHAU-

CITY           SKY/WX    TMP DP  RH WIND       PRES   REMARKS
LIHUE APT      CLOUDY    76  70  82 E8        29.93R
PORT ALLEN*      N/A     77 N/A N/A E13         N/A
POIPU*           N/A     77 N/A N/A E6          N/A
PRINCEVILLE*     N/A     75 N/A N/A SE6         N/A
KOKOLE POINT*  NOT AVBL
MOLOAA DAIRY*    N/A     73  70  88 SE3         N/A
WAIMEA HTS*    NOT AVBL
PUU OPAE*      NOT AVBL
PUU LUA*       NOT AVBL
MAKAHA RIDGE*  NOT AVBL
$$

HIZ005>011-080500-
OAHU-

CITY           SKY/WX    TMP DP  RH WIND       PRES   REMARKS
HONOLULU       CLOUDY    77  68  73 NE5       29.92R
KALAELOA       CLOUDY    78  70  76 NW8       29.93R
KANEOHE MCB    NOT AVBL
WHEELER FIELD  MOCLDY    74  69  83 CALM      29.94R
BELLOWS*       NOT AVBL
KAHUKU*        NOT AVBL
WHEELER*       NOT AVBL
WAIANAE HARBOR NOT AVBL
DILLINGHAM*      N/A     86  77  74 MISG        N/A  HX  97
KAHUKU TRN*      N/A     75  72  88 NW1G10      N/A
KAWAILOA*        N/A     72  66  83 NE3G9       N/A
KII*             N/A     77  72  83 E8          N/A
MAKUA RANGE*     N/A     81  75  83 N2G9        N/A
OAHU FOREST NW NOT AVBL
SCHOFIELD BRK*   N/A     73  70  88 CALM        N/A
SCHOFIELD S*   NOT AVBL
WAIANAE VLY*   NOT AVBL
KUAOKALA*      NOT AVBL
HONOULIUULI*   NOT AVBL
MOKUOLOE IS*   NOT AVBL
PALEHUA*       NOT AVBL
WAIAWA PHB*    NOT AVBL
$$

HIZ012>013-080500-
MOLOKAI-

CITY           SKY/WX    TMP DP  RH WIND       PRES   REMARKS
MOLOKAI AIRPT  PTCLDY    76  70  82 NE8       29.93R
KALAUPAPA      NOT AVBL
MAKAPULAPAI*   NOT AVBL
MOLOKAI 1*     NOT AVBL
PUU ALII*      NOT AVBL
$$

HIZ016-080500-
KAHOOLAWE-

CITY           SKY/WX    TMP DP  RH WIND       PRES   REMARKS
KAHOOLAWE*     NOT AVBL
HAKIOAWA*      NOT AVBL
HONOKANAIA*      N/A     81  71  72 NE6G18    29.83R
KANELOA*         N/A     75  72  88 E12G23    29.96R
KEALIALALO*    NOT AVBL
LUA MAKIKA*    NOT AVBL
$$

HIZ014>015-080500-
LANAI-

CITY           SKY/WX    TMP DP  RH WIND       PRES   REMARKS
LANAI CITY     FAIR      71  68  90 N3        29.98R
LANAI 1*       NOT AVBL
$$

HIZ017>028-080500-
MAUI-

CITY           SKY/WX    TMP DP  RH WIND       PRES   REMARKS
KAHULUI        PTCLDY    79  70  74 NE8       29.90R
KAPALUA-W MAUI MOCLDY    77  66  69 E3        29.92
HANA AIRPORT   CLOUDY    73  72  94 E5        29.96R
HANA*            N/A     75 N/A N/A SE6G12      N/A
HALEAKALA SUMM   N/A     45  36  70 S6          N/A
MAALAEA BAY*   NOT AVBL
HALEAKALA*     NOT AVBL
KAUPO GAP*     NOT AVBL
KULA 1*          N/A     55  54  95 E3          N/A
$$

HIZ023>026-080500-
BIG ISLAND OF HAWAII COAST AND LOWER SLOPES-

CITY           SKY/WX    TMP DP  RH WIND       PRES   REMARKS
KAILUA KONA    MOCLDY    79  74  84 S13       29.89R
HILO           CLOUDY    75  71  87 S7        29.93R
HONOKAA*         N/A     72 N/A N/A VRB1        N/A
KAWAIHAE MWT*    N/A     81 N/A N/A NW5         N/A
KAWAIHAE*      NOT AVBL
SOUTH POINT*     N/A     70 N/A N/A N13G20      N/A
UPOLU AIRPORT* NOT AVBL
KAMUELA*       CLEAR     68  64  88 E7        30.02R
HAKALAU*         N/A     57  56  96 S1G7        N/A
KALOKO-HONOKO* NOT AVBL
PALI 2*          N/A     64  64 100 W3G9        N/A
KEALAKOMO*       N/A     77  72  83 NE7         N/A
KAUPULEHU*     NOT AVBL
KAPAPALA*      NOT AVBL
LOWER KAHUKU*  NOT AVBL
PUHE CS*       NOT AVBL
PUHO CS*       NOT AVBL
PTA KEAMUKU*     N/A     64  61  88 CALM        N/A
WAIKOLOA*      NOT AVBL
$$

HIZ027>028-080500-
BIG ISLAND OF HAWAII INTERIOR AND SUMMMITS-

CITY           SKY/WX    TMP DP  RH WIND       PRES   REMARKS
BRADSHAW FIELD PTCLDY    59  55  87 SE7       30.25R
MK VISITOR CEN   N/A     48  46  93 SE3         N/A
MAUNA KEA*       N/A     34  28  80 SW28        N/A  WCI  20
MAUNA LOA*     NOT AVBL
MAUNA LOA 1*   NOT AVBL
PTA KIPUKA*      N/A     64  64 100 N2          N/A
PTA RANGE 17*    N/A     61  57  88 N1          N/A
PTA WEST*        N/A     66  63  88 VRB3        N/A
NENE CABIN*    NOT AVBL
AHUMOA*        NOT AVBL
PTA PORTABLE*  NOT AVBL
PUU MALI*        N/A     55  55 100 E3          N/A
$$

HIC003-080500-
NORTHWEST ISLANDS-

CITY           SKY/WX    TMP DP  RH WIND       PRES   REMARKS
MIDWAY ISLAND  LGT RAIN  70  61  73 N9        30.01R
MIDWAY NOS*    NOT AVBL
FRENCH FRIGATE NOT AVBL
$$

PHZ110>124-180-080500-
BUOY REPORTS

STATION/POSITION TIME  TEMP    WIND        PRES    WAVE   SWELL
                       AIR SEA DIR/SP/G            HT/PER HT/DIR
                 (UTC) (F)     (DEG/KT/KT) (MB)    (FT/S) (FT/D)
BUOY 51001       0350   76 77  180/ 12/ 16 1011.8R   7/15   7/310
BUOY 51101       0350   77 77  180/ 14/ 17 1012.2R   6/15   5/310
BUOY 51100       NOT AVBL
BUOY 51002       0350   78 78   90/ 14/ 17 1011.5R   6/ 9   5/ 80
BUOY 51003       0350   78 80   90/  6/  8 1012.0R   6/16   7/310
BUOY 51004       0350   76 79  100/ 16/ 17 1012.7R   6/ 8   5/100
BARBERS PT BUOY  NOT AVBL
WAIMEA BAY BUOY  NOT AVBL
KAILUA BAY BUOY  0334      78                N/A     6/11   3/ 10
LANAI BUOY       0345      79                N/A     2/15   2/300
BARBERS PT 2     0339      79                N/A     4/15   3/310
PAUWELA MAUI     0339      78                N/A     6/15   5/320
HILO             0342      78                N/A     5/ 9   3/340
KANEOHE BAY BUOY 0336      78                N/A     5/11   3/ 10
HANALEI KAUAI    0352      78                N/A     7/14   5/320
KAHULUI HARBOR   0342   77 78  360/ 12/ 15 1012.8R
HONOLULU HARBOR  0342   78 78   50/  5/  7 1013.5R
KILO NALU        NOT AVBL
HILO HARBOR      0342   76 76  160/  5/  8 1013.2R
MOKUOLOE         0336   76     260/  2/  3   N/A
NAWILIWILI       0342   76 78   80/  6/  7 1013.2R
WHOTS BUOY       NOT AVBL
BUOY 51028       NOT AVBL
$$

......................KEY........................................
  SKY/WX - SKY CONDITIONS/PRESENT WEATHER
  TMP    - TEMPERATURE IN FAHRENHEIT
  DWPT   - DEWPOINT IN FAHRENHEIT
  RH     - RELATIVE HUMIDITY IN PERCENT
  WIND   - DIRECTION AND SPEED /MPH FOR ISLANDS...KTS FOR BUOYS/
  PRES   - MEAN SEA LEVEL PRESSURE IN INCHES OF HG
  VSB    - VISIBILITY IN MILES
  HX     - HEAT INDEX
  WCI    - WIND CHILL INDEX
  VRB    - VARIABLE WIND DIRECTION
  N/A    - NOT AVAILABLE




USA.gov is the U.S. government's official web portal to all federal, state and local government web resources and services.